[Iaude] MPEC U286: 2023 UG10 [a=1.48,e=0.36,i=18.7,H=20.7]
    mpec at marsden.cfa.harvard.edu 
    mpec at marsden.cfa.harvard.edu
       
    Mon Oct 30 16:22:05 EDT 2023
    
    
  
M.P.E.C. 2023-U286                             Issued 2023 October 30, 20:20 UT
     The Minor Planet Electronic Circulars contain information on unusual
         minor planets, routine data on comets and natural satellites,
         and occasional editorial announcements.  They are published
    on behalf of Division F of the International Astronomical Union by the
          Minor Planet Center, Smithsonian Astrophysical Observatory,
                          Cambridge, MA 02138, U.S.A.
			  
             Prepared using the Tamkin Foundation Computer Network
                              MPC at CFA.HARVARD.EDU
            URL https://www.minorplanetcenter.net/    ISSN 1523-6714
                                   2023 UG10                                    
Observations:
     K23U10G* C2023 10 17.37255401 24 33.063-29 08 26.20         21.77wXEU286F51
     K23U10G  C2023 10 17.37383601 24 32.881-29 08 24.98         21.85wXEU286F51
     K23U10G  C2023 10 17.39436701 24 30.108-29 08 08.30         21.99wXEU286F51
     K23U10G  C2023 10 17.39564801 24 29.954-29 08 07.40         22.05wXEU286F51
     K23U10G  C2023 10 17.40526401 24 28.635-29 07 59.66         22.02wXEU286F51
     K23U10G  C2023 10 17.40654501 24 28.464-29 07 58.70         22.26wXEU286F51
     K23U10G KC2023 10 19.48972901 20 04.33 -28 38 21.3          21.2 GVEU286474
     K23U10G KC2023 10 19.49676501 20 03.40 -28 38 15.7          21.9 GVEU286474
     K23U10G KC2023 10 19.50628801 20 02.16 -28 38 07.3          22.1 GVEU286474
     K23U10G KC2023 10 23.23438001 12 42.073-27 39 57.42         23.53GVEU286V06
     K23U10G KC2023 10 23.24311601 12 41.022-27 39 48.42         22.11GVEU286V06
     K23U10G KC2023 10 23.25185301 12 39.978-27 39 39.46         22.30GVEU286V06
     K23U10G KC2023 10 23.26059101 12 39.006-27 39 30.49         23.11GVEU286V06
Observer details:
474 Mount John Observatory, Lake Tekapo.  Observers A. C. Gilmore, P. M.
    Kilmartin.  Measurer P. M. Kilmartin.  1.0-m f/7.7 reflector + CCD.
F51 Pan-STARRS 1, Haleakala.  Observers J. Bulger, T. Lowe, P. Minguez, A.
    Schultz, I. Smith.  Measurers K. Chambers, T. de Boer, J. Fairlamb, H.
    Gao, M. Huber, C.-C. Lin, E. Magnier, Y. Ramanjooloo, R. Wainscoat, R.
    Weryk.  1.8-m Ritchey-Chretien + CCD.
V06 Catalina Sky Survey-Kuiper.  Observer J. B. Fazekas.  Measurers E. C.
    Beshore, D. Fay, J. B. Fazekas, D. C. Fuls, A. R. Gibbs, A. D. Grauer, H.
    Groeller, J. K. Hogan, R. A. Kowalski, S. M. Larson, G. J. Leonard, D.
    Rankin, R. L. Seaman, F. C. Shelly, K. W. Wierzchos.  1.55-m reflector +
    1K CCD.
Orbital elements:
2023 UG10                                                Earth MOID = 0.0622 AU
Epoch 2023 Sept. 13.0 TT = JDT 2460200.5                Bell                    
M  70.59497              (2000.0)            P               Q                  
n   0.54762061     Peri.  178.69522     -0.37173920     +0.87846971             
a   1.4796177      Node    69.41238     -0.85461069     -0.19755371             
e   0.3563210      Incl.   18.70200     -0.36256107     -0.43504425             
P   1.80           H   20.78          G   0.15           U   9                  
Residuals in seconds of arc
231017 F51  0.1+  0.2-    231017 F51  0.1-  0.1-    231023 V06  0.1-  0.1-
231017 F51  0.0   0.0     231019 474  0.4+  0.4+    231023 V06  0.4-  0.2+
231017 F51  0.1-  0.2+    231019 474  0.0   0.2-    231023 V06  0.2+  0.5+
231017 F51  0.2+  0.0     231019 474  0.3-  0.2-
231017 F51  0.1-  0.0     231023 V06  0.3+  0.5-
Ephemeris:
2023 UG10                a,e,i = 1.48, 0.36, 19                  q = 0.9524
Date    TT    R. A. (2000) Decl.     Delta      r    Elong.  Phase     V
2023 09 30    02 05 55.4 -31 20 53   0.6753  1.5712   138.2    25.1    22.1
...
2023 10 15    01 29 47.8 -29 38 38   0.7333  1.6388   142.0    22.0    22.2
...
2023 10 23    01 13 08.4 -27 43 40   0.7819  1.6728   140.3    22.4    22.4
...
2023 10 29    01 02 51.6 -25 57 44   0.8263  1.6972   137.5    23.3    22.6
2023 10 30    01 01 21.0 -25 38 51   0.8344  1.7012   137.0    23.5    22.6
2023 10 31    00 59 53.9 -25 19 42   0.8426  1.7052   136.4    23.7    22.7
...
2023 11 06    00 52 25.3 -23 19 57   0.8956  1.7285   132.6    25.0    22.9
...
2023 11 14    00 45 39.4 -20 32 21   0.9753  1.7581   127.0    26.7    23.2
...
2023 11 29    00 41 37.7 -15 14 47   1.1476  1.8092   115.7    29.4    23.6
M. P. C. Staff               (C) Copyright 2023 MPC           M.P.E.C. 2023-U286
    
    
More information about the Iaude
mailing list